Date String (YYYY-MM-DD hh:mm:ss) UTC,Instrument flags,Ambient pressure (hPa),Sample flow (lpm),Bypass flow (lpm),Sample temperature (°C),Ambient temperature (°C),ASC tube jacket temperature (°C),LED temperature (°C),Box temperature (°C),Sample RH (%),Span deviation,Mass concentration (μg/m³),Mass concentration (μg/m³),Mass concentration (μg/m³)
DateTimeUTC,F1_M11,P_M11,Q1_M11,Q2_M11,T1_M11,T2_M11,T3_M11,T4_M11,T5_M11,U1_M11,ZSPAN_M11,X0_M11,X2_M11,X1_M11
2021-10-21 16:00:00,,0833.3,5.01,0.00,24.9,24.1,00.0,33.9,26.7,13.9,0000.0,0008.51,0003.53,0002.79
2021-10-21 16:01:00,,0833.3,5.00,0.00,24.9,24.1,00.0,33.9,26.7,13.9,0000.0,0008.36,0003.48,0002.75
2021-10-21 16:02:00,,0833.3,4.99,0.00,24.9,24.1,00.0,33.9,26.7,13.8,0000.0,0008.35,0003.46,0002.71
2021-10-21 16:03:00,,0833.3,5.01,0.00,24.9,24.1,00.0,34.0,26.8,13.8,0000.0,0008.39,0003.43,0002.68
2021-10-21 16:04:00,,0833.3,4.98,0.00,24.9,24.1,00.0,34.0,26.8,13.7,0000.0,0008.60,0003.42,0002.66
2021-10-21 16:05:00,,0833.4,5.01,0.00,24.9,24.1,00.0,34.0,26.8,13.7,0000.0,0009.27,0003.39,0002.62
2021-10-21 16:06:00,,0833.5,4.99,0.00,24.9,24.1,00.0,34.0,26.8,13.8,0000.0,0009.17,0003.37,0002.60
2021-10-21 16:07:00,,0833.4,5.00,0.00,24.9,24.1,00.0,34.0,26.8,14.0,0000.0,0009.57,0003.40,0002.58
2021-10-21 16:08:00,,0833.4,5.00,0.00,24.9,24.1,00.0,34.0,26.7,13.8,0000.0,0009.94,0003.43,0002.55
2021-10-21 16:09:00,,0833.4,5.01,0.00,24.9,24.1,00.0,34.0,26.7,14.4,0000.0,0011.05,0003.49,0002.54
2021-10-21 16:10:00,,0833.5,5.02,0.00,24.9,24.1,00.0,34.0,26.8,14.8,0000.0,0011.44,0003.58,0002.53
2021-10-21 16:11:00,,0833.3,5.00,0.00,24.9,24.1,00.0,34.0,26.8,15.0,0000.0,0012.05,0003.66,0002.52
2021-10-21 16:12:00,,0833.3,4.99,0.00,24.9,24.1,00.0,34.0,26.8,14.8,0000.0,0012.62,0003.74,0002.54
2021-10-21 16:13:00,,0833.2,5.00,0.00,25.0,24.1,00.0,34.0,26.8,14.3,0000.0,0013.57,0003.76,0002.56
2021-10-21 16:14:00,,0833.3,5.01,0.00,25.0,24.1,00.0,34.0,26.8,13.9,0000.0,0014.50,0003.79,0002.56
2021-10-21 16:15:00,,0833.3,5.00,0.00,25.0,24.1,00.0,34.0,26.8,14.4,0000.0,0014.99,0003.84,0002.56
2021-10-21 16:16:00,,0833.3,5.00,0.00,25.0,24.1,00.0,34.0,26.8,14.6,0000.0,0014.87,0003.92,0002.59
2021-10-21 16:17:00,,0833.4,4.99,0.00,25.0,24.2,00.0,34.0,26.8,14.7,0000.0,0015.78,0003.99,0002.61
2021-10-21 16:18:00,,0833.5,5.01,0.00,25.0,24.2,00.0,34.0,26.8,14.8,0000.0,0015.96,0004.04,0002.63
2021-10-21 16:19:00,,0833.5,5.00,0.00,25.0,24.2,00.0,34.0,26.8,14.7,0000.0,0016.48,0004.15,0002.69
2021-10-21 16:20:00,,0833.4,5.00,0.00,25.0,24.2,00.0,34.0,26.8,14.6,0000.0,0016.50,0004.23,0002.75
2021-10-21 16:21:00,,0833.4,5.00,0.00,25.0,24.1,00.0,34.0,26.8,14.6,0000.0,0017.48,0004.27,0002.80
2021-10-21 16:22:00,,0833.5,5.01,0.00,25.0,24.1,00.0,34.0,26.8,14.8,0000.0,0017.88,0004.29,0002.83
2021-10-21 16:23:00,,0833.4,4.99,0.00,25.0,24.2,00.0,34.0,26.8,14.7,0000.0,0018.42,0004.36,0002.86
2021-10-21 16:24:00,,0833.4,5.00,0.00,25.0,24.2,00.0,34.0,26.8,14.6,0000.0,0017.73,0004.43,0002.89
2021-10-21 16:25:00,,0833.4,5.00,0.00,25.0,24.2,00.0,34.0,26.8,14.5,0000.0,0017.24,0004.53,0002.95
2021-10-21 16:26:00,,0833.4,5.01,0.00,25.0,24.2,00.0,34.0,26.8,14.5,0000.0,0017.63,0004.64,0003.01
2021-10-21 16:27:00,,0833.4,5.00,0.00,25.0,24.2,00.0,34.0,26.8,14.5,0000.0,0018.51,0004.67,0003.04
2021-10-21 16:28:00,,0833.4,5.00,0.00,25.0,24.2,00.0,34.0,26.8,14.5,0000.0,0018.44,0004.68,0003.06
2021-10-21 16:29:00,,0833.3,5.00,0.00,25.0,24.2,00.0,34.0,26.9,14.0,0000.0,0018.11,0004.62,0003.03
2021-10-21 16:30:00,,0833.3,5.00,0.00,25.0,24.2,00.0,34.0,26.9,13.6,0000.0,0016.90,0004.46,0002.95
2021-10-21 16:31:00,,0833.3,4.99,0.00,25.0,24.2,00.0,34.0,26.9,13.5,0000.0,0015.58,0004.26,0002.84
2021-10-21 16:32:00,,0833.3,5.00,0.00,25.0,24.2,00.0,34.0,26.9,13.5,0000.0,0013.98,0004.15,0002.77
2021-10-21 16:33:00,,0833.4,5.00,0.00,25.0,24.2,00.0,34.1,26.9,13.8,0000.0,0013.02,0004.07,0002.73
2021-10-21 16:34:00,,0833.4,5.02,0.00,25.0,24.2,00.0,34.1,26.9,13.9,0000.0,0012.54,0003.95,0002.68
2021-10-21 16:35:00,,0833.4,4.98,0.00,25.0,24.2,00.0,34.1,26.9,13.9,0000.0,0012.94,0003.87,0002.64
2021-10-21 16:36:00,,0833.4,5.01,0.00,25.0,24.2,00.0,34.1,26.9,14.0,0000.0,0013.40,0003.77,0002.60
2021-10-21 16:37:00,,0833.4,5.00,0.00,25.1,24.3,00.0,34.1,26.9,14.5,0000.0,0014.32,0003.70,0002.58
2021-10-21 16:38:00,,0833.4,5.00,0.00,25.1,24.3,00.0,34.1,27.0,16.0,0000.0,0014.46,0003.66,0002.60
2021-10-21 16:39:00,,0833.5,5.00,0.00,25.1,24.3,00.0,34.1,26.9,15.9,0000.0,0015.10,0003.69,0002.64
2021-10-21 16:40:00,,0833.5,5.02,0.00,25.1,24.3,00.0,34.1,26.9,15.2,0000.0,0015.34,0003.74,0002.70
2021-10-21 16:41:00,,0833.4,5.00,0.00,25.1,24.3,00.0,34.1,26.9,14.5,0000.0,0015.86,0003.84,0002.75
2021-10-21 16:42:00,,0833.5,4.98,0.00,25.1,24.3,00.0,34.1,26.9,14.1,0000.0,0015.98,0003.91,0002.80
2021-10-21 16:43:00,,0833.5,5.01,0.00,25.1,24.3,00.0,34.1,26.9,14.3,0000.0,0015.82,0003.95,0002.84
2021-10-21 16:44:00,,0833.5,4.99,0.00,25.1,24.3,00.0,34.1,26.9,15.8,0000.0,0016.17,0004.04,0002.91
2021-10-21 16:45:00,,0833.6,5.01,0.00,25.1,24.3,00.0,34.1,27.0,17.4,0000.0,0015.99,0004.15,0003.04
2021-10-21 16:46:00,,0833.6,5.00,0.00,25.1,24.3,00.0,34.1,27.0,17.5,0000.0,0016.31,0004.31,0003.15
2021-10-21 16:47:00,,0833.5,5.00,0.00,25.1,24.2,00.0,34.1,27.0,17.0,0000.0,0017.72,0004.47,0003.20
2021-10-21 16:48:00,,0833.5,4.99,0.00,25.1,24.2,00.0,34.1,26.9,17.0,0000.0,0017.05,0004.57,0003.25
2021-10-21 16:49:00,,0833.5,5.01,0.00,25.1,24.2,00.0,34.1,26.9,16.9,0000.0,0015.94,0004.63,0003.26
2021-10-21 16:50:00,,0833.5,4.99,0.00,25.1,24.3,00.0,34.1,26.9,16.9,0000.0,0016.20,0004.67,0003.26
2021-10-21 16:51:00,,0833.5,5.01,0.00,25.1,24.3,00.0,34.1,26.9,17.0,0000.0,0016.73,0004.76,0003.28
2021-10-21 16:52:00,,0833.5,4.99,0.00,25.1,24.3,00.0,34.1,26.9,16.8,0000.0,0017.55,0004.77,0003.28
2021-10-21 16:53:00,,0833.4,5.00,0.00,25.1,24.3,00.0,34.1,27.0,16.5,0000.0,0017.94,0004.81,0003.29
2021-10-21 16:54:00,,0833.4,5.00,0.00,25.1,24.3,00.0,34.1,27.0,16.4,0000.0,0018.24,0004.86,0003.29
2021-10-21 16:55:00,,0833.4,4.99,0.00,25.1,24.3,00.0,34.1,27.0,16.7,0000.0,0018.32,0004.80,0003.26
2021-10-21 16:56:00,,0833.4,5.01,0.00,25.1,24.3,00.0,34.1,27.0,17.6,0000.0,0018.54,0004.77,0003.23
2021-10-21 16:57:00,,0833.4,5.00,0.00,25.1,24.3,00.0,34.1,27.0,16.6,0000.0,0017.59,0004.65,0003.17
2021-10-21 16:58:00,,0833.4,4.99,0.00,25.1,24.3,00.0,34.2,27.0,15.9,0000.0,0016.67,0004.58,0003.12
2021-10-21 16:59:00,,0833.3,5.01,0.00,25.1,24.3,00.0,34.2,27.0,15.8,0000.0,0017.34,0004.51,0003.03
